Theta_e
313 313 313 312 312 312 309 307 307 307 308 309 308 304 298 299 299 299 299 302 301 297 297 297 297 297 295 295 298 296 295 295 295 298 298 297 297 297 300 298 299 298 296 295 296 297 296 301 304 302 298 304 304 303
313 313 313 312 312 312 311 308 308 307 308 309 309 306 301 298 299 299 299 300 301 300 298 300 299 300 298 297 295 293 295 296 295 297 294 293 300 290 296 295 296 299 297 297 298 297 295 300 302 301 299 303 302 302
312 312 313 313 312 312 311 310 309 308 308 309 309 307 303 298 300 299 299 303 302 300 300 299 299 302 302 301 299 297 293 294 294 293 292 296 299 296 297 295 296 296 295 298 299 298 296 298 299 300 299 301 301 300
311 311 311 313 313 312 311 311 310 308 308 308 309 308 304 299 300 300 300 302 303 302 301 298 297 297 298 299 298 297 296 295 293 292 291 294 298 295 297 295 296 295 296 297 296 296 296 296 295 297 299 299 299 298
310 310 311 311 313 313 311 311 310 309 307 308 309 309 304 299 300 300 300 302 303 302 301 297 296 296 296 296 295 295 295 293 292 292 293 297 296 295 293 293 295 294 297 297 298 296 297 296 297 296 298 299 297 296
310 309 309 310 310 311 312 311 311 310 307 308 309 309 305 300 300 301 301 300 302 303 301 299 295 293 293 294 294 293 293 292 292 293 294 293 293 295 294 295 297 294 294 297 298 294 294 296 297 297 297 297 296 295
308 309 309 309 309 310 311 311 310 310 309 308 309 308 304 300 300 301 301 301 303 302 301 301 298 293 293 293 292 291 293 291 292 293 293 294 294 294 291 299 298 296 295 295 295 296 297 296 297 295 296 295 298 295
304 306 309 308 308 309 310 310 310 310 309 308 309 306 303 300 300 301 302 301 302 302 300 302 299 294 293 293 294 290 292 291 292 293 293 294 293 293 296 296 299 299 296 295 295 295 298 296 295 295 294 294 294 293
301 303 304 307 308 309 310 310 310 310 309 308 307 303 300 301 301 300 301 301 301 301 302 301 302 298 291 293 293 291 291 294 292 293 294 295 295 296 297 296 297 297 296 297 294 293 294 295 295 294 293 293 294 293
299 302 303 305 307 308 309 310 310 309 308 307 301 295 295 300 299 299 299 299 299 299 298 301 295 296 293 294 295 294 292 294 294 295 292 295 297 295 295 296 297 297 296 293 295 295 293 293 295 295 294 295 295 294
299 300 302 304 305 308 309 309 310 309 303 300 293 294 298 299 298 296 298 299 299 300 298 299 298 295 292 297 297 294 294 289 288 292 294 292 293 294 296 297 298 298 294 294 296 297 296 296 295 295 294 293 293 293
299 300 300 304 304 306 308 309 309 304 303 299 297 297 297 296 296 298 299 299 299 301 298 299 298 296 294 295 298 293 292 290 293 291 292 293 294 292 292 294 295 294 294 294 294 295 295 295 294 295 294 293 293 294
298 299 300 303 304 306 308 309 309 304 300 297 295 295 297 297 299 299 298 300 299 297 299 297 297 297 295 295 297 296 295 295 292 294 296 293 293 294 294 293 295 293 292 293 293 293 294 293 294 294 293 293 294 294
298 299 300 301 302 305 308 308 307 300 298 295 297 297 300 297 299 298 295 296 296 296 299 299 297 299 296 298 299 297 295 293 294 294 294 293 294 295 292 294 295 295 293 292 292 292 293 293 292 293 293 293 293 293
298 299 299 300 302 303 307 308 303 300 294 297 298 300 299 296 289 292 293 294 293 298 299 298 297 297 298 300 297 294 294 295 295 296 296 295 294 293 293 293 292 293 292 291 292 292 293 292 291 291 292 293 294 293
298 299 298 300 301 302 308 307 300 301 293 295 297 300 296 297 292 291 292 295 298 299 299 299 299 299 301 297 296 294 293 296 296 294 294 290 294 294 294 293 292 292 292 292 292 292 292 292 292 292 292 293 293 293
298 298 298 300 301 302 307 302 298 294 295 297 298 295 293 297 298 296 298 297 299 300 302 299 300 300 297 298 297 294 292 294 293 292 290 291 293 293 292 292 292 292 292 290 291 292 292 293 292 291 290 290 293 293
298 298 297 298 300 306 305 294 294 296 297 297 298 298 296 295 296 296 297 298 300 301 300 298 297 298 298 299 297 293 292 290 289 291 291 292 291 291 291 291 291 291 289 290 291 291 291 290 291 292 291 290 291 291
298 298 297 297 304 295 294 292 293 298 297 293 289 295 293 292 296 297 297 299 298 299 296 297 299 295 295 292 293 292 287 290 296 294 292 291 291 291 291 289 289 289 289 289 289 290 291 292 293 290 289 288 287 285
297 297 296 297 300 294 294 292 292 295 295 292 292 296 294 295 296 297 298 299 298 299 300 298 299 294 294 293 291 292 293 293 291 294 294 292 289 284 287 287 289 290 290 290 291 291 290 289 290 290 289 288 287 285
296 295 296 300 293 292 293 292 296 294 293 295 294 296 293 294 297 298 298 298 299 300 301 298 299 299 293 291 292 292 291 290 292 293 294 289 289 287 284 288 290 289 289 289 290 290 291 291 289 289 289 288 288 288
295 299 297 293 292 292 293 292 294 294 295 295 296 292 295 295 296 297 297 298 300 299 298 299 298 298 297 294 290 290 294 291 290 290 292 292 289 289 288 288 289 290 290 290 291 292 291 289 289 288 288 288 288 287
297 295 292 292 292 293 291 290 293 293 296 297 296 294 294 296 297 295 299 298 299 292 297 295 296 294 295 293 289 289 291 289 290 289 289 290 289 290 290 290 291 291 292 291 292 291 288 288 288 287 286 285 284 284
294 294 295 293 292 291 291 292 291 293 295 296 296 293 292 293 294 296 297 291 291 295 297 297 297 297 286 284 287 292 290 289 290 288 289 288 288 288 290 291 291 292 292 291 290 288 287 286 286 284 282 281 281 279
298 295 294 291 289 288 289 289 289 291 292 293 292 291 291 291 293 294 289 287 292 296 296 296 296 296 296 297 295 294 293 290 290 290 289 291 290 290 290 291 291 291 291 289 287 286 285 285 283 282 281 280 279 277
295 291 290 285 287 289 288 290 289 289 290 290 291 289 289 293 294 294 286 290 292 289 294 294 294 294 294 294 295 295 287 290 291 291 290 291 292 292 291 290 288 286 289 289 287 285 283 282 281 280 280 281 280 277
289 287 288 287 287 287 289 289 289 292 291 290 288 288 291 293 292 289 284 278 279 277 280 281 282 288 292 291 291 293 293 290 291 292 292 291 291 292 291 290 290 288 288 288 286 284 283 281 280 280 280 279 278 277
286 287 291 285 285 283 290 290 291 293 290 287 289 290 290 290 292 286 280 274 277 277 278 280 282 283 284 288 292 291 288 288 288 289 287 287 290 290 290 290 290 288 287 287 286 285 284 282 280 279 278 277 276 276
286 286 287 285 283 286 287 290 292 287 287 290 293 288 286 283 276 274 274 276 276 276 274 282 286 286 287 289 289 287 285 286 288 288 288 285 285 283 288 288 286 286 286 284 284 286 285 284 283 280 279 277 275 275
288 283 285 282 286 287 281 280 282 278 279 279 279 278 279 276 272 276 275 274 271 272 275 282 284 284 285 285 283 283 285 288 290 290 289 286 286 284 285 284 284 284 284 284 282 281 280 278 277 277 275 273 273 272
283 283 284 283 282 279 278 277 277 278 272 272 271 277 278 273 274 275 275 276 277 277 276 277 280 283 284 283 284 284 284 286 289 290 289 286 284 284 283 283 283 283 284 282 280 277 275 274 274 272 272 271 272 272
282 281 285 285 280 278 278 280 283 277 275 277 276 271 273 276 281 274 276 275 273 273 278 279 276 279 284 284 285 286 287 286 288 288 286 283 282 282 282 282 282 282 281 278 277 276 276 274 272 272 272 272 272 273
280 278 276 279 281 280 279 279 281 277 276 276 275 272 272 279 287 278 276 276 278 278 279 283 284 285 285 285 286 285 285 286 287 286 284 283 283 282 281 281 281 280 279 277 275 275 274 274 272 272 273 273 272 272
Wind_Speed
27 27 30 34 32 31 30 29 29 27 26 25 22 18 15 14 14 12 5 11 6 2 4 7 4 3 1 3 4 2 3 2 2 1 2 3 3 3 1 3 4 4 4 3 2 1 5 6 3 6 5 1 3 5
30 29 29 32 34 34 32 30 32 32 29 28 26 22 18 16 16 14 6 11 12 4 4 5 12 14 7 4 4 1 3 3 5 3 1 2 2 1 3 3 1 3 6 3 7 5 4 8 7 6 5 5 5 5
33 33 31 31 33 36 36 33 33 35 33 31 29 27 22 20 19 19 8 9 5 1 4 1 6 18 22 19 11 3 3 3 3 4 3 1 4 4 3 5 3 4 3 3 2 4 9 12 9 6 7 7 6 6
37 36 36 32 31 36 37 36 35 36 36 34 32 31 26 22 22 21 16 14 7 2 2 4 2 6 7 17 17 13 4 4 5 2 2 3 3 4 4 3 4 4 6 5 6 10 8 12 10 11 10 8 6 5
38 39 39 39 35 33 38 38 38 39 38 37 35 35 29 24 22 20 20 17 21 4 2 4 5 7 8 14 15 11 6 3 2 1 2 3 2 2 2 1 4 6 7 6 7 10 5 7 4 5 10 13 11 9
41 38 40 41 39 39 39 39 39 41 40 40 38 38 33 26 24 18 3 23 26 19 1 2 2 1 4 10 8 5 5 1 2 3 4 3 3 4 3 4 7 11 7 12 10 6 8 4 4 4 9 9 9 10
45 42 40 39 41 40 42 43 44 42 42 41 39 40 34 28 30 9 3 2 24 19 1 3 3 2 6 5 3 2 3 2 2 2 3 3 3 5 3 10 5 11 15 14 13 5 7 6 7 8 8 7 14 10
38 43 44 41 41 43 44 45 47 46 42 41 39 42 33 30 27 14 5 3 24 7 3 3 2 0 7 3 3 3 3 0 2 3 2 3 1 3 6 5 17 21 16 14 15 16 19 2 5 5 6 7 8 8
38 40 42 46 45 45 46 47 47 49 44 38 38 36 25 17 10 14 14 8 14 6 3 4 5 4 3 2 3 1 2 2 1 3 3 4 3 9 10 14 14 16 14 18 6 12 12 12 9 9 8 9 10 10
38 41 43 44 48 48 48 48 48 48 42 40 40 8 4 12 20 25 7 2 2 3 3 4 2 3 4 2 2 3 2 3 3 5 2 4 7 5 6 16 17 15 14 8 5 6 7 8 12 14 17 13 15 13
38 40 44 44 44 52 51 50 48 42 51 16 4 4 11 38 9 2 4 5 4 4 5 5 7 5 4 4 4 4 3 1 2 4 4 3 4 6 16 22 21 17 8 14 16 16 13 12 14 15 13 13 12 15
40 40 40 42 45 51 52 51 49 46 30 24 17 19 12 4 3 5 6 4 6 7 6 7 7 4 3 3 3 3 3 1 6 2 1 4 5 8 8 11 11 7 7 11 13 16 11 14 10 14 14 14 16 20
40 40 41 42 44 48 52 51 50 45 44 27 6 6 6 5 6 12 10 6 6 6 7 6 5 4 2 1 3 3 4 7 2 3 5 6 6 10 12 2 5 5 6 6 7 8 10 9 14 14 11 18 21 20
39 41 39 42 40 43 53 49 52 53 18 4 8 10 9 7 9 8 7 8 5 6 12 10 4 5 3 4 3 5 5 3 3 4 6 4 10 7 6 2 3 5 8 8 8 8 8 9 8 14 17 22 23 19
39 38 40 41 42 39 49 50 65 52 8 6 6 9 10 3 2 5 5 5 2 10 14 8 3 3 3 4 5 3 3 6 7 5 4 4 4 6 5 3 4 5 6 6 6 7 7 8 7 9 17 21 22 22
36 35 40 40 42 41 50 49 59 34 7 6 6 7 5 9 3 4 5 5 6 11 8 3 4 5 5 4 5 10 6 8 4 4 4 3 3 3 5 4 4 5 5 5 5 6 7 8 8 11 20 20 23 27
31 25 31 31 36 37 44 27 16 5 8 6 4 2 6 4 12 8 10 8 13 14 8 4 9 9 4 4 5 6 6 4 4 4 3 5 5 4 5 4 3 4 4 5 6 8 9 14 17 14 9 16 24 25
36 35 37 42 43 36 30 9 5 7 6 3 6 8 8 4 12 9 6 13 10 11 6 7 4 5 7 9 5 4 6 4 3 4 3 5 5 6 4 4 4 6 5 7 8 11 13 12 10 8 14 22 21 18
34 31 36 41 32 9 4 4 4 6 2 3 2 7 5 3 8 12 10 15 5 7 6 4 5 5 5 4 4 4 3 3 4 4 3 3 3 3 5 6 7 5 7 9 10 7 12 16 13 16 17 19 14 18
34 36 45 45 30 3 4 2 4 4 5 4 4 9 4 4 8 9 11 14 9 6 5 6 7 4 5 4 4 4 5 5 4 2 4 3 3 4 5 4 3 9 9 11 13 13 12 9 14 19 21 18 17 15
33 42 50 29 6 5 3 4 4 4 4 3 4 7 3 5 8 8 7 10 7 5 10 7 9 9 6 3 4 4 3 5 5 5 5 3 4 4 2 10 12 12 5 5 6 7 15 12 16 21 20 17 19 22
30 21 11 7 3 3 3 0 5 4 3 5 7 3 4 5 6 6 6 6 7 10 9 11 10 9 9 8 6 7 9 9 6 4 2 5 3 2 3 5 6 7 7 9 12 9 12 17 21 22 21 19 18 20
10 8 4 3 4 3 2 1 4 2 5 7 5 4 2 2 4 7 5 5 7 4 8 7 9 9 11 7 5 5 17 9 6 6 5 6 8 11 9 12 15 7 7 11 17 16 15 20 19 22 21 21 23 20
10 3 3 3 4 4 4 2 2 3 3 4 5 5 5 3 4 3 4 3 2 5 9 15 12 11 1 2 5 9 8 16 7 5 13 6 5 6 14 13 16 16 17 16 18 18 21 19 21 21 23 21 19 18
5 2 5 4 2 5 5 4 3 3 3 2 4 3 4 3 3 5 4 3 5 10 11 11 10 11 12 14 11 11 16 17 8 10 10 19 8 8 8 11 13 16 23 20 16 20 19 22 23 22 21 21 20 19
5 0 4 5 3 5 5 5 5 5 4 3 3 4 2 3 4 6 3 4 7 5 10 10 11 11 11 12 12 10 6 23 17 8 8 21 19 10 9 8 7 6 23 24 24 23 22 22 22 23 19 20 21 23
5 2 2 2 4 4 4 4 3 4 4 6 5 4 4 5 6 4 2 3 3 2 1 1 2 6 9 6 11 19 15 22 19 13 15 22 22 23 23 12 10 15 26 27 27 30 28 25 24 22 21 19 23 25
3 3 7 4 3 1 6 4 4 5 4 4 6 6 10 9 6 3 3 3 4 2 5 8 10 14 12 15 15 15 14 17 15 17 17 14 16 19 18 16 19 27 29 28 29 31 34 32 28 28 27 26 24 21
3 2 4 4 3 2 2 4 5 2 3 6 6 5 5 3 1 2 2 5 3 1 0 1 2 1 3 8 12 16 22 23 10 10 10 6 5 3 21 25 28 30 29 27 25 32 34 35 33 32 30 29 25 22
1 1 4 2 3 2 1 2 1 1 1 1 1 2 2 2 2 4 5 3 2 1 3 2 3 3 2 4 4 5 9 14 17 12 11 10 9 20 24 27 27 31 33 33 31 28 27 29 28 29 29 28 26 25
1 2 4 3 3 1 1 1 1 2 2 2 2 2 2 3 3 4 4 3 7 6 2 1 2 7 4 5 6 6 4 8 11 14 14 26 29 28 27 29 31 34 36 37 34 33 31 31 31 30 28 25 24 24
3 3 2 3 1 2 1 2 2 2 3 3 3 3 3 3 3 2 6 13 5 2 5 6 3 3 13 12 12 8 10 17 21 22 29 30 29 32 34 35 35 36 37 35 33 35 35 33 28 26 27 27 25 24
2 2 3 3 2 1 1 3 3 2 3 1 2 1 2 2 5 3 8 12 7 9 9 10 11 12 15 15 14 14 19 23 24 28 32 36 38 38 37 36 37 38 36 35 33 34 33 33 30 30 30 29 26 22
Wind_Direction
272 269 271 269 262 256 251 251 244 243 234 233 236 232 227 221 216 212 207 200 168 179 268 195 195 169 73 157 164 204 37 345 34 97 135 205 177 222 230 224 190 201 154 209 97 18 313 161 81 168 211 205 209 187
264 262 263 266 265 258 252 247 243 244 237 229 228 228 225 220 217 212 227 209 206 175 232 236 250 246 238 217 146 198 185 163 196 103 328 83 259 36 167 267 125 256 192 201 191 223 230 207 208 216 181 172 198 193
259 260 256 259 262 260 254 247 240 243 241 232 225 225 220 214 211 212 203 177 166 274 282 179 224 245 236 232 228 155 267 180 174 174 157 168 250 136 206 244 203 238 171 223 6 259 236 232 241 226 206 214 199 204
259 260 259 253 255 259 255 250 241 234 241 236 228 223 219 212 205 209 206 195 194 189 242 275 238 245 251 233 226 221 164 113 97 86 141 162 208 175 223 231 211 211 145 198 260 278 267 259 236 233 210 203 202 192
261 259 260 258 252 250 254 251 244 234 233 235 229 223 214 208 200 209 223 224 206 181 238 280 293 238 207 196 201 204 178 128 130 85 146 220 212 145 207 1 235 186 194 181 227 221 207 247 234 213 203 203 191 173
257 261 259 262 258 256 251 248 244 240 229 232 230 221 208 199 187 182 232 237 226 212 215 275 194 189 151 175 177 176 179 162 161 173 217 242 246 159 204 228 237 210 210 212 241 199 208 241 262 214 217 205 185 182
261 262 260 262 264 259 255 250 243 237 230 229 229 217 202 188 185 188 236 258 194 182 196 277 277 29 139 121 114 114 168 222 186 243 227 222 237 176 236 239 208 220 226 234 235 127 273 193 232 202 201 190 185 181
266 261 253 265 263 261 256 250 243 236 230 222 220 205 188 183 191 215 200 103 165 156 178 244 253 350 180 148 168 156 142 139 233 251 278 214 164 207 254 241 229 233 228 241 233 204 235 183 197 206 171 146 166 182
272 265 261 258 260 259 256 250 241 234 226 212 198 176 163 187 191 189 202 192 191 214 206 206 170 214 181 128 118 114 162 185 228 242 236 147 210 227 225 220 225 221 200 227 226 211 222 213 207 196 177 178 182 191
276 269 263 260 255 256 252 247 240 229 212 173 141 140 182 172 143 139 122 203 218 236 225 214 113 161 156 147 163 123 201 218 213 230 137 224 249 315 250 239 243 235 211 168 176 232 197 221 206 199 202 194 195 187
275 275 265 260 257 251 248 243 233 214 150 152 135 155 140 137 117 120 171 198 187 225 206 177 180 142 208 143 174 193 185 180 257 245 171 253 271 239 231 236 243 248 203 209 225 247 212 213 208 203 194 192 185 176
273 273 274 257 262 252 244 237 224 170 172 166 137 123 135 144 141 165 191 201 214 218 176 160 175 147 160 137 127 186 181 99 250 127 163 264 250 257 266 253 253 232 217 234 223 237 232 219 200 198 192 184 184 182
274 272 275 270 259 251 239 231 209 175 140 119 141 159 160 181 176 173 190 208 197 174 175 159 127 128 104 151 100 170 185 226 75 204 232 232 261 276 272 256 270 224 219 236 254 235 219 208 186 178 180 181 173 170
278 271 277 272 267 259 235 229 193 155 148 156 162 166 199 181 208 196 165 158 186 169 159 154 139 138 143 150 158 194 214 116 245 240 238 236 239 290 329 237 192 255 223 229 228 213 193 178 180 184 183 171 164 167
281 274 277 272 264 268 240 221 172 166 139 174 178 187 199 192 156 165 139 120 136 152 146 139 85 89 141 171 193 99 171 239 213 228 225 229 260 278 284 262 246 268 254 232 206 203 192 166 169 166 174 173 165 162
279 280 279 273 259 268 226 201 170 177 150 170 193 158 149 158 174 149 155 123 147 153 133 88 139 161 188 183 161 206 182 216 230 218 236 203 241 289 300 297 271 242 221 223 197 195 182 162 169 175 168 168 165 166
283 269 278 270 255 266 221 167 171 145 179 189 180 169 165 173 166 165 166 154 157 153 165 153 174 196 115 195 222 196 203 205 211 222 232 238 240 241 258 268 282 265 229 191 180 186 181 165 153 150 160 162 170 175
270 271 278 267 278 230 187 145 161 186 178 163 163 176 180 151 149 154 163 155 156 179 163 188 136 190 200 197 216 222 212 229 209 218 216 230 217 225 199 219 221 205 192 195 180 166 155 154 159 165 159 160 161 165
267 275 278 276 245 119 133 169 174 165 140 139 119 152 144 136 172 162 156 169 160 165 120 151 186 205 217 211 197 207 199 189 183 200 221 248 253 233 229 216 206 190 177 171 162 175 175 178 181 157 159 160 154 160
277 277 282 273 177 109 111 84 136 115 166 177 138 164 145 151 156 164 157 170 169 172 197 215 212 188 195 202 197 182 189 178 140 174 259 249 212 193 210 191 199 192 174 172 168 163 149 140 166 164 166 168 158 164
279 276 282 184 127 109 114 156 145 146 137 127 132 136 117 127 149 162 165 171 192 211 220 218 228 233 189 213 196 182 144 151 187 188 202 225 204 196 187 204 191 172 172 165 186 176 175 180 176 175 166 171 178 177
272 215 137 114 94 97 99 189 127 124 105 130 133 111 130 162 151 165 137 191 219 216 221 226 222 232 237 220 214 206 223 200 214 211 198 140 145 160 207 194 173 195 197 191 183 185 167 165 174 170 167 164 167 162
197 128 82 93 95 79 103 28 88 117 129 148 116 103 147 143 144 125 197 214 227 211 211 227 231 233 240 246 168 194 201 189 207 208 210 208 212 197 184 187 193 193 200 201 183 167 158 163 159 159 154 154 148 139
127 90 109 108 102 114 129 118 113 106 96 151 132 121 156 140 132 193 232 242 228 192 219 224 223 237 278 354 223 233 212 198 218 217 201 169 197 209 198 195 194 205 205 186 168 151 150 149 148 144 147 141 141 139
111 139 112 96 104 117 116 123 106 92 115 135 105 121 157 145 167 209 220 247 199 211 218 221 223 224 234 244 247 246 220 190 204 222 209 201 184 138 180 189 193 191 181 164 155 144 141 140 141 145 148 148 144 140
98 80 121 162 157 123 160 126 149 146 126 124 122 130 157 150 176 233 229 212 217 206 211 210 212 222 232 231 240 241 213 205 198 213 207 191 191 189 184 176 173 189 186 171 153 146 141 140 141 143 147 154 152 148
123 186 115 74 108 124 103 76 92 118 131 150 156 151 156 171 220 245 242 214 193 212 176 213 195 220 234 238 228 237 224 197 195 225 213 190 192 189 179 178 189 182 174 162 155 153 145 144 146 147 143 146 163 168
131 165 139 164 96 333 118 111 142 166 145 159 133 169 168 193 221 219 193 174 156 208 274 258 242 238 242 249 223 171 147 160 149 139 138 147 176 184 183 179 174 173 165 166 161 157 155 154 152 152 155 158 163 172
81 129 101 59 80 72 116 153 176 163 135 162 169 167 214 223 224 164 204 176 170 203 22 231 228 333 186 174 174 172 158 153 153 162 156 145 139 131 162 156 146 148 148 142 152 163 166 165 162 161 162 160 159 158
126 10 97 82 91 93 66 4 68 37 56 94 80 42 0 311 262 213 187 168 118 164 232 240 180 156 201 161 141 129 176 189 189 178 167 171 165 148 147 145 141 141 144 141 135 129 129 133 136 143 146 147 149 151
80 90 85 55 86 25 12 323 352 58 48 63 14 114 229 296 298 237 206 212 222 232 189 148 178 197 176 170 170 160 172 195 188 180 157 148 146 147 146 144 143 143 143 138 138 139 139 138 142 144 146 148 152 158
43 44 126 107 75 329 343 39 42 54 6 45 348 16 354 28 286 254 209 190 179 167 210 194 176 218 199 188 182 189 191 166 163 160 154 145 145 146 148 145 145 143 143 142 143 146 148 144 145 147 150 153 158 162
93 60 49 89 94 30 321 75 47 36 24 352 274 211 213 192 240 245 184 199 196 191 208 217 205 193 183 174 164 162 160 160 160 161 155 152 150 145 143 145 148 150 150 144 144 149 149 149 147 152 156 157 159 160